Regional Weather Roundup
Issued by NWS Northern Indiana

Home | Current Version | Previous Version | Graphics & Text | Print | Product List | Glossary On
Versions: 1 2 3 4 5 6 7 8 9 10 11 12 13 14 15 16 17 18 19 20 21 22 23 24 25 26 27 28 29 30 31 32 33 34 35 36 37 38 39 40 41 42 43 44 45 46 47 48 49 50
000
ASUS43 KIWX 281800
RWRIWX

KIWX WEATHER ROUNDUP
NATIONAL WEATHER SERVICE NORTHERN INDIANA
200 PM EDT THU JUL 28 2016

NOTE: "FAIR" INDICATES FEW OR NO CLOUDS BELOW 12,000 FEET WITH NO
SIGNIFICANT WEATHER AND/OR OBSTRUCTIONS TO VISIBILITY.

* THESE STATIONS ARE NOT UNDER NWS QUALITY CONTROL. THEY ALSO MAY NOT
  REPORT WEATHER SUCH AS PRECIPITATION OR FOG.

INZ001>027-281900-
NORTHERN INDIANA

CITY           SKY/WX    TMP DP  RH WIND       PRES   REMARKS
GARY*          MOSUNNY   84  73  70 NE6       29.88F
KNOX*          CLOUDY    82  55  39 NE3       29.89F
SOUTH BEND       N/A    N/A N/A N/A MISG      29.90F
6HR MIN TEMP:  71; 6HR MAX TEMP:  84;

GOSHEN         PTSUNNY   84  63  49 VRB5      29.90F
6HR MIN TEMP:  68; 6HR MAX TEMP:  85;

MONTICELLO*    CLOUDY    81  65  57 CALM      29.89S
6HR MIN TEMP:  69; 6HR MAX TEMP:  82;

ANGOLA*          N/A     82  75  78 N5        29.91F
FORT WAYNE     CLOUDY    85  65  51 E6        29.90S
6HR MIN TEMP:  70; 6HR MAX TEMP:  86;


$$
INZ028>050-281900-
CENTRAL INDIANA

CITY           SKY/WX    TMP DP  RH WIND       PRES   REMARKS
LAFAYETTE      CLOUDY    81  70  69 SW5       29.89S
6HR MIN TEMP:  70; 6HR MAX TEMP:  81;

KOKOMO*        PTSUNNY   84  66  54 CALM      29.89F
6HR MIN TEMP:  70; 6HR MAX TEMP:  84;

MUNCIE*        CLOUDY    86  65  49 N6        29.90F
6HR MIN TEMP:  72; 6HR MAX TEMP:  86;

INDIANAPOLIS   PTSUNNY   84  70  62 VRB3      29.90S
6HR MIN TEMP:  74; 6HR MAX TEMP:  84;


$$
MIZ043>046-050>051-056>058-064>065-071>073-077>080-281900-
SOUTHWEST LOWER MICHIGAN

CITY           SKY/WX    TMP DP  RH WIND       PRES   REMARKS
BATTLE CREEK   MOSUNNY   80  67  64 N9        29.93S
6HR MIN TEMP:  66; 6HR MAX TEMP:  81;

BENTON HARBOR  MOSUNNY   84  66  54 CALM      29.88F
6HR MIN TEMP:  69; 6HR MAX TEMP:  85;

COLDWATER*     CLOUDY    80  68  67 NE6       29.93S
6HR MIN TEMP:  68; 6HR MAX TEMP:  80;

HILLSDALE*     MOSUNNY   81  67  63 E3        29.93S
6HR MIN TEMP:  59; 6HR MAX TEMP:  87;

HOLLAND        MOSUNNY   84  69  60 E7        29.91F
6HR MIN TEMP:  68; 6HR MAX TEMP:  84;

GRAND RAPIDS   PTSUNNY   81  66  60 E8        29.92F
6HR MIN TEMP:  69; 6HR MAX TEMP:  81;

KALAMAZOO      CLOUDY    83  66  56 VRB7      29.91F
6HR MIN TEMP:  70; 6HR MAX TEMP:  84;

STURGIS*       PTSUNNY   80  68  66 E5        29.91S
6HR MIN TEMP:  67; 6HR MAX TEMP:  81;

THREE RIVERS*  FAIR      83  65  54 E6        29.91F
6HR MIN TEMP:  69; 6HR MAX TEMP:  84;


$$
OHZ001>008-015>018-024>025-281900-
NORTHWEST OHIO

CITY           SKY/WX    TMP DP  RH WIND       PRES   REMARKS
DEFIANCE       CLOUDY    84  68  58 E8        29.90S
6HR MIN TEMP:  71; 6HR MAX TEMP:  84;

FINDLAY        CLOUDY    87  62  43 MISG      29.88F
6HR MIN TEMP:  76; 6HR MAX TEMP:  88;

TOLEDO EXPRESS CLOUDY    83  70  64 N6        29.89F
6HR MIN TEMP:  70; 6HR MAX TEMP:  83;

TOLEDO METCALF PTSUNNY   82  71  69 NE8       29.90F
6HR MIN TEMP:  73; 6HR MAX TEMP:  82;

LIMA           CLOUDY    85  66  53 CALM      29.89F
6HR MIN TEMP:  71; 6HR MAX TEMP:  85;


$$
AND FOR LAKE MICHIGAN COASTAL AND OPEN LAKE BUOY OBSERVATIONS

STATION/POSITION TEMP    WIND        PRES    VSBY  WAVE
                 AIR SEA DIR/SP/G                  HT/PER
                 (F)     (DEG/KT/KT) (MB)    (MI)  (FT/S)
CALUMET HARBOR    79      40/  7/  8 1011.7F
MICHIGAN CITY     80     300/  6/  7   N/A
BURNS HARBOR      77      10/  6/  8 1012.9F
SAINT JOSEPH      80     360/  5/  7 1013.5R
SOUTH LAKE BUOY   75 76  110/  6/  6 1012.2          1/ 4
4 MI NW BRIDGMAN  77 79  310/  4/  4 1012.2F         0
MICHIGAN CITY     79 79  330/  4/  4   N/A           1

$$
&&



USA.gov is the U.S. government's official web portal to all federal, state and local government web resources and services.